Showing default

MBZ-SAT, 62626

Orbit data source: Space-Track

MBZ-SAT, 62626 is a payload satellite owned by Rashid Space Ctr (AE) in SSO that was launched on Tue, 14 Jan 2025 UTC via an FALCON 9 launch vehicle from the Air Force Western Test Range (AFWTR). Payload-class satellites include a variety of spacecraft equipped with specific instruments for various scientific and technological missions. These include communications satellites like Starlink; space stations such as the ISS; scientific satellites like the Hubble; Earth observation satellites from companies like Planet Labs, Umbra, and HawkEye 360; GPS; miniature CubeSats for education and research; and military/defense satellites.

Loading next visibility...
Identifier
62626, 2025-009T
Orbit
SSO
Country
Flag of AEAE / UAE
Related business
Manufacturer
Rashid Space Ctr
Mission
Operational Civil Imaging
Bus & Motor
MBZSAT, Unknown motor
Mass
750 kg wet, ~700 kg dry
Launch date (UTC)
2025-01-14 (1 year ago)
Launch vehicle
FALCON 9
Launch site
Air Force Western Test Range (AFWTR)
Object type
Payload
Rocket body
Debris
Shape & HBR
Hex Cyl + 4 Pan, 2.3 m
Radar Cross Section
14.173 m², Large (>1 m²)

Expand to show TLE details & history
Last TLE update: 22 hours ago

TLE from 22 hours ago
0 MBZ-SAT
1 62626U 25009T   26034.11740861  .00005613  00000-0  27419-3 0  9992
2 62626  97.4096 115.2831 0006352 101.3629 258.8320 15.18634560 58345
Epoch: 2026-02-03T02:49Z
TLE epoch observation values (Epoch: 2026-02-03T02:49:04.103Z)
Latitude
0.00002°
Longitude
-60.28694°
Altitude
513.905 km
Speed
7.606 km/s
True Right ascension
07h 41m 07s
True Declination
0° 00' 00"
Sunlit
Object was in full shadow at epoch
Visualization orbit readout
Latitude
Unknown
Longitude
Unknown
Altitude
Unknown
Speed
Unknown
Apparent Right ascension
Unknown
Apparent Declination
Unknown
Sunlit
N/A
Visualization observer readout
Local Sidereal Time
02:40:29
Azimuth
Unknown
Elevation
Unknown
Doppler factor
Unknown
Orbital elements
Apogee altitude
511.308 km
Perigee altitude
502.561 km
Semi-major axis
6,885.071 km
Eccentricity
0.00064
Inclination
97.4096°
RAAN
115.2831°
Arg. of periapsis
101.3629°
True anomaly
258.7606°
Mean anomaly
258.832°
Eccentric anomaly
258.7963°
Mean motion
3.7991 °/min
Orbital period
94.76 mins
BSTAR
0.00027419
Loading maneuver chart data...
Computing Atmospheric mass density...
Loading historical data...
Loading historical data...
Loading historical data...
Loading historical data...
Loading historical data...
Loading historical data...
Loading historical data...

Documentation

Showing up to 5 results
|